User: anonymous   Login
Location: Cluny
(50.9333°N, 112.8167°W)
Time: 16:59:12
(UTC-06:00)
Language:

Cosmos 1743 Rocket - Orbit

View from above orbital plane
View from above orbital plane
View from above satellite
View from above satellite

Ground track
Ground track

The orbit data is extracted from the following two-line orbital elements,

1 16720U 86034B   17113.96282229 +.00000156 +00000-0 +16146-4 0  9994
2 16720 082.5515 292.0504 0018698 281.3705 238.9410 14.83285261650136
Epoch (UTC): 23 April 2017 23:06:27
Eccentricity: 0.0018698
inclination: 82.5515°
perigee height: 606 km
apogee height: 632 km
right ascension of ascending node: 292.0504°
argument of perigee: 281.3705°
revolutions per day: 14.83285261
mean anomaly at epoch: 238.9410°
orbit number at epoch: 65013

The dashed part of the orbit path shows where the satellite is in the earth's shadow,  

DLR